Overview Statistics Trail Chart Weather Telemetry Raw packets
 

This is the latest recevied weather packets stored in our database for station/object KC1IUC-15. If no packets are shown the sender has not sent any weather packets the latest 10 day(s).

<< 9 10 11 12 13 14 15 >>
Time Temp. Humidity Pressure Rain* Wind** Luminosity Snow
1788542104 27.78° C 48% 1009.3 hPa 0 mm - 661 W/m² -
1788541804 28.33° C 48% 1009.3 hPa 0 mm - 664 W/m² -
1788541504 27.78° C 49% 1009.3 hPa 0 mm - 663 W/m² -
1788541204 28.33° C 47% 1009.3 hPa 0 mm - 163 W/m² -
1788540904 27.22° C 49% 1009.6 hPa 0 mm - 678 W/m² -
1788540604 27.78° C 49% 1009.3 hPa 0 mm - 635 W/m² -
1788540304 28.89° C 46% 1009.6 hPa 0 mm - 136 W/m² -
1788540004 28.89° C 47% 1009.3 hPa 0 mm - 193 W/m² -
1788539704 27.78° C 49% 1009.6 hPa 0 mm - 697 W/m² -
1788539404 27.78° C 49% 1009.6 hPa 0 mm - 699 W/m² -
1788539104 28.33° C 48% 1009.3 hPa 0 mm - 629 W/m² -
1788538804 29.44° C 47% 1009.6 hPa 0 mm - 98 W/m² -
1788538504 27.78° C 49% 1009.3 hPa 0 mm - 663 W/m² -
1788538204 27.22° C 49% 1009.6 hPa 0 mm - 640 W/m² -
1788537904 27.78° C 47% 1009.6 hPa 0 mm - 630 W/m² -
1788537604 27.78° C 50% 1009.6 hPa 0 mm - 625 W/m² -
1788537304 27.78° C 50% 1009.9 hPa 0 mm - 624 W/m² -
1788537004 27.78° C 48% 1009.9 hPa 0 mm - 615 W/m² -
1788536704 27.78° C 50% 1009.9 hPa 0 mm - 609 W/m² -
1788536404 27.22° C 50% 1009.9 hPa 0 mm - 615 W/m² -
1788536104 27.22° C 49% 1010.3 hPa 0 mm - 666 W/m² -
1788535804 27.22° C 49% 1009.9 hPa 0 mm - 606 W/m² -
1788535504 27.22° C 50% 1009.9 hPa 0 mm - 607 W/m² -
1788535221 27.78° C 51% 1009.9 hPa 0 mm - 662 W/m² -
1788534904 27.22° C 52% 1009.9 hPa 0 mm - 613 W/m² -

* Rain latest hour (hover to see other rain measurements)
** Current wind speed in m/s (hover to see current wind gust speed)